Location: Namasale
(1.5000°N, 32.6167°E)
Time: 18:14:54
(UTC+00:00)

Courier 1B - Pass Details

Date: 21 April 2021
Orbit: 962 x 1209 km, 28.3° (Epoch: 18 May)

Event Time Altitude Azimuth Distance (km) Brightness Sun altitude
Rises 06:59:22 0° 251° (WSW) 3,976 10.3 46.9°
Reaches altitude 10° 07:02:20 10° 256° (WSW) 2,978 9.7 47.6°
Maximum altitude 07:09:21 50° 330° (NNW) 1,323 8.7 49.2°
Drops below altitude 10° 07:15:57 10° 44° (NE) 2,796 10.6 50.8°
Sets 07:18:39 0° 50° (NE) 3,714 11.1 51.5°
